STARLINK-2476

Last updated on Sat May 08 2021 00:02:04 GMT+0000 (Coordinated Universal Time)

1 48134U 21027AU 21127.58334491 .00055172 00000-0 39477-3 0 9995 2 48134 53.0470 191.7212 0002396 21.5214 292.9442 15.73204277 1774

Satellite not in orbit

STARLINK-2476